YAOGAN-50 02 DEB

基本信息
目录编号:
100585
目录名称:
YAOGAN-50 02 DEB
国际标识:
2026-051Z
轨道中心:
EARTH
物体状态:
在轨
发射日期:
--
轨道信息
数据来源: 国际轨道数据
星历时间: 2026-09-03T11:16:32+0800
半长轴: 7257.008km
偏心率: 0.02848
轨道倾角: 141.947°
近地点辐角: 341.422°
升交点赤经: 351.460°
平近点角: 17.632°
近地点: 672.191km
远地点: 1085.551km
周期: 102.541分钟
每日圈数: 14.04321
详细信息
轨道高度:
LEO
数据来源:
AOE Integration Group
参考系:
TEME
时间系统:
UTC
历元类型:
SGP4
2D轨道图
3D轨道图
轨道高度分析图
轨道倾角分析图
轨道综合分析图
查看轨道综合分析图